Regional Weather Roundup
Issued by NWS Sioux Falls, SD

Home | Current Version | Previous Version | Graphics & Text | Print | Product List | Glossary On
Versions: 1 2 3 4 5 6 7 8 9 10 11 12 13 14 15 16 17 18 19 20 21 22 23 24 25 26 27 28 29 30 31 32 33 34 35 36 37 38 39 40 41 42 43 44 45 46 47 48 49 50
000
ASUS43 KFSD 290110
RWRFSD

WEATHER ROUNDUP FOR SE SOUTH DAKOTA/SW MINNESOTA/NW IOWA
NATIONAL WEATHER SERVICE SIOUX FALLS SD
700 PM CST SUN DEC 28 2014

NOTE: "FAIR" INDICATES FEW OR NO CLOUDS BELOW 12,000 FEET WITH NO
SIGNIFICANT WEATHER AND OR OBSTRUCTIONS TO VISIBILITY.


SDZ038>040-050-052>070-290200-
SOUTHEAST SOUTH DAKOTA

CITY           SKY/WX    TMP DP  RH WIND       PRES   REMARKS
CHAMBERLAIN    LGT SNOW  18  16  92 NE7       30.18R WCI   8
HURON          CLOUDY    16  13  88 NE6       30.25R WCI   7
MADISON        CLOUDY    16  16 100 NE13      30.19R WCI   2
MITCHELL       CLOUDY    22  18  85 E8        30.22R WCI  12
SIOUX FALLS    CLOUDY    20  16  84 E9        30.21R WCI   9
WINNER         LGT SNOW  19  15  84 E12       30.13R WCI   7
YANKTON        CLOUDY    19  16  86 NE5       30.21R WCI  13
$$

MNZ071-072-080-081-089-090-097-098-290200-
SOUTHWEST MINNESOTA

CITY           SKY/WX    TMP DP  RH WIND       PRES   REMARKS
FAIRMONT       CLOUDY    18  16  93 N7        30.22R WCI   8
JACKSON        CLOUDY    19  18  93 NE10      30.21R FOG     WCI   8
LUVERNE        CLOUDY    21  18  86 NE8       30.20R WCI  12
MARSHALL       CLOUDY    16   9  73 N14       30.25R WCI   1
MONTEVIDEO     MOCLDY    14   9  79 N8        30.28R WCI   3
PIPESTONE      MOCLDY    16  14  93 NE10      30.18R WCI   3
REDWOOD FALLS  CLOUDY    20  14  77 NE7       30.25R WCI  11
TRACY          CLOUDY    18  15  90 N13       30.23R WCI   4
WINDOM         CLOUDY    18  18 100 NE5       30.22R WCI  11
WORTHINGTON    CLOUDY    18 -26  13 E14       30.20R WCI   4
$$

IAZ001>003-012>014-020>022-031-032-NEZ013-014-SDZ071-290200-
NORTHWEST IOWA

CITY           SKY/WX    TMP DP  RH WIND       PRES   REMARKS
CHEROKEE       MOCLDY    20  18  93 NE3       30.19R
DENISON        CLOUDY    23  21  93 NE9       30.14S WCI  13
ESTHERVILLE    CLOUDY    16  15  96 N14       30.20R FOG     WCI   2
LE MARS        CLOUDY    21  18  86 NE7       30.20R WCI  13
ORANGE CITY    MOCLDY    19  16  86 NE7       30.18R WCI  10
SHELDON        CLOUDY    18  18 100 NE12      30.18R WCI   5
SIOUX CITY     CLOUDY    21  15  78 NE6       30.20R WCI  13
SPENCER        CLOUDY    19  15  84 NE12      30.20R WCI   7
STORM LAKE     MOCLDY    18  16  93 E9        30.17R WCI   6
$$

ABBREVIATIONS USED IN REMARKS
   TC - TEMPERATURE IN CELSIUS
  WCI - WIND CHILL INDEX
   HX - HEAT INDEX
  VSB - VISIBILITY




USA.gov is the U.S. government's official web portal to all federal, state and local government web resources and services.